Location: Caltech
(34.1382°N, 118.1253°W)
Time: 03:15:50
(UTC-07:00)

NOAA 19 - Visible Passes

Search period start: 28 May 2017 00:00
Search period end: 07 June 2017 00:00
Orbit: 842 x 861 km, 99.1° (Epoch: 27 May)

Date Brightness Start Highest point End Pass type
(mag) Time Alt. Az. Time Alt. Az. Time Alt. Az.
28 May 6.1 03:56:14 10° NNE 04:01:34 46° E 04:06:51 10° S visible
29 May 6.5 03:44:58 10° NNE 03:50:02 35° E 03:55:04 10° SSE visible
30 May 6.9 03:33:48 10° NE 03:38:30 27° E 03:43:10 10° SSE visible
31 May 7.3 03:22:47 10° NE 03:26:57 21° E 03:31:04 10° SE visible
31 May 5.8 05:02:30 10° N 05:07:43 43° WNW 05:12:55 10° SW visible
01 Jun 7.6 03:11:58 10° NE 03:15:22 16° E 03:18:44 10° SE visible
01 Jun 5.5 04:50:53 10° N 04:56:18 55° WNW 05:01:42 10° SSW visible
02 Jun 7.7 03:01:37 10° ENE 03:03:46 12° E 03:05:55 10° ESE visible
02 Jun 5.3 04:39:20 10° N 04:44:52 71° WNW 04:50:23 10° SSW visible
03 Jun 5.2 04:27:49 10° NNE 04:33:25 90° WNW 04:38:58 10° SSW visible
04 Jun 5.5 04:16:22 10° NNE 04:21:56 71° ESE 04:27:28 10° S visible
05 Jun 5.8 04:04:59 10° NNE 04:10:27 55° E 04:15:52 10° S visible
06 Jun 6.3 03:53:41 10° NNE 03:58:56 42° E 04:04:09 10° S visible
